• Em Portugal
  • Lista de países
  • Para 7 dias
  • Temperatura da água
  • Mapas de satélite
  • Mapa do tempo
  • Widgets de tempo
  • user-avatar
    Iniciar Sessão

    Previsão horária em Porto Velho

    Hoje, 22 Janeiro, Segunda-feira

    Tempo Temperatura Precipitação Vento Pressão Humidade
    00:00 +25°C° 0 mm 0 m/s 749 mmHg 81%
    01:00 +24°C° 0 mm 0 m/s 749 mmHg 82%
    02:00 +24°C° 0 mm 0 m/s 749 mmHg 84%
    03:00 +24°C° 0 mm 0 m/s 749 mmHg 86%
    04:00 +23°C° 0 mm 0 m/s 749 mmHg 89%
    05:00 +23°C° 0 mm 0 m/s 749 mmHg 91%
    06:00 +24°C° 0 mm 0 m/s 749 mmHg 86%
    07:00 +25°C° 0 mm 0 m/s 750 mmHg 82%
    08:00 +28°C° 0 mm 1 m/s 750 mmHg 77%
    09:00 +30°C° 0,8 mm 1 m/s 750 mmHg 75%
    10:00 +31°C° 0,8 mm 1 m/s 750 mmHg 73%
    11:00 +32°C° 0,8 mm 1 m/s 750 mmHg 71%
    12:00 +33°C° 0,6 mm 1 m/s 749 mmHg 64%
    13:00 +34°C° 0,6 mm 1 m/s 749 mmHg 58%
    14:00 +35°C° 0,6 mm 1 m/s 748 mmHg 52%
    15:00 +34°C° 0 mm 1 m/s 747 mmHg 55%
    16:00 +34°C° 0 mm 1 m/s 747 mmHg 58%
    17:00 +33°C° 0 mm 1 m/s 746 mmHg 61%
    18:00 +29°C° 0,1 mm 0 m/s 747 mmHg 68%
    19:00 +27°C° 0,1 mm 0 m/s 747 mmHg 76%
    20:00 +26°C° 0,1 mm 0 m/s 748 mmHg 83%
    21:00 +25°C° 0 mm 0 m/s 748 mmHg 84%
    22:00 +25°C° 0 mm 0 m/s 748 mmHg 86%
    23:00 +24°C° 0 mm 0 m/s 749 mmHg 87%

    Amanhã, 23 Janeiro, Terça-feira

    Tempo Temperatura Precipitação Vento Pressão Humidade
    00:00 +24°C° 0,2 mm 0 m/s 748 mmHg 89%
    01:00 +24°C° 0,2 mm 0 m/s 748 mmHg 90%
    02:00 +23°C° 0,2 mm 0 m/s 748 mmHg 92%
    03:00 +23°C° 0,7 mm 0 m/s 748 mmHg 93%
    04:00 +23°C° 0,7 mm 0 m/s 748 mmHg 95%
    05:00 +23°C° 0,7 mm 0 m/s 748 mmHg 96%
    06:00 +23°C° 0,1 mm 0 m/s 749 mmHg 95%
    07:00 +24°C° 0,1 mm 0 m/s 749 mmHg 94%
    08:00 +24°C° 0,1 mm 0 m/s 750 mmHg 93%
    09:00 +25°C° 1 mm 0 m/s 750 mmHg 91%
    10:00 +29°C° 1 mm 1 m/s 750 mmHg 88%
    11:00 +30°C° 1 mm 1 m/s 750 mmHg 86%
    12:00 +30°C° 0,9 mm 1 m/s 750 mmHg 81%
    13:00 +31°C° 0,9 mm 1 m/s 749 mmHg 77%
    14:00 +30°C° 0,9 mm 0 m/s 748 mmHg 73%
    15:00 +31°C° 1,2 mm 1 m/s 748 mmHg 79%
    16:00 +30°C° 1,2 mm 1 m/s 748 mmHg 85%
    17:00 +29°C° 1,2 mm 1 m/s 747 mmHg 91%
    18:00 +26°C° 0,3 mm 0 m/s 748 mmHg 93%
    19:00 +25°C° 0,3 mm 0 m/s 748 mmHg 95%
    20:00 +24°C° 0,3 mm 0 m/s 749 mmHg 97%
    21:00 +24°C° 0 mm 0 m/s 749 mmHg 97%
    22:00 +24°C° 0 mm 0 m/s 750 mmHg 97%
    23:00 +23°C° 0 mm 0 m/s 750 mmHg 97%

    Depois de amanhã, 24 Janeiro, Quarta-feira

    Tempo Temperatura Precipitação Vento Pressão Humidade
    00:00 +23°C° 0 mm 0 m/s 749 mmHg 97%
    01:00 +23°C° 0 mm 0 m/s 749 mmHg 97%
    02:00 +25°C° 0 mm 1 m/s 749 mmHg 97%
    03:00 +23°C° 0 mm 0 m/s 749 mmHg 97%
    04:00 +23°C° 0 mm 0 m/s 749 mmHg 97%
    05:00 +22°C° 0 mm 0 m/s 749 mmHg 97%
    06:00 +23°C° 0 mm 0 m/s 749 mmHg 96%
    07:00 +23°C° 0 mm 0 m/s 750 mmHg 95%
    08:00 +24°C° 0 mm 0 m/s 751 mmHg 94%
    09:00 +26°C° 0 mm 0 m/s 751 mmHg 84%
    10:00 +30°C° 0 mm 1 m/s 751 mmHg 74%
    11:00 +32°C° 0 mm 1 m/s 751 mmHg 64%
    12:00 +32°C° 0,2 mm 1 m/s 750 mmHg 62%
    13:00 +33°C° 0,2 mm 1 m/s 749 mmHg 60%
    14:00 +34°C° 0,2 mm 1 m/s 748 mmHg 59%
    15:00 +33°C° 0,5 mm 1 m/s 748 mmHg 65%
    16:00 +32°C° 0,5 mm 1 m/s 747 mmHg 72%
    17:00 +31°C° 0,5 mm 1 m/s 747 mmHg 78%
    18:00 +29°C° 0,1 mm 1 m/s 747 mmHg 82%
    19:00 +28°C° 0,1 mm 1 m/s 748 mmHg 86%
    20:00 +27°C° 0,1 mm 1 m/s 748 mmHg 91%
    21:00 +26°C° 0,1 mm 1 m/s 749 mmHg 91%
    22:00 +26°C° 0,1 mm 1 m/s 749 mmHg 91%
    23:00 +26°C° 0,1 mm 1 m/s 750 mmHg 92%

    25 Janeiro, Quinta-feira

    Tempo Temperatura Precipitação Vento Pressão Humidade
    00:00 +25°C° 0 mm 1 m/s 749 mmHg 92%
    01:00 +25°C° 0 mm 1 m/s 749 mmHg 91%
    02:00 +25°C° 0 mm 1 m/s 749 mmHg 91%
    03:00 +25°C° 0 mm 1 m/s 749 mmHg 92%
    04:00 +25°C° 0 mm 1 m/s 749 mmHg 93%
    05:00 +25°C° 0 mm 1 m/s 749 mmHg 93%
    06:00 +25°C° 0,1 mm 1 m/s 750 mmHg 93%
    07:00 +25°C° 0,1 mm 1 m/s 751 mmHg 94%
    08:00 +25°C° 0,1 mm 1 m/s 751 mmHg 94%
    09:00 +27°C° 0,1 mm 1 m/s 751 mmHg 87%
    10:00 +28°C° 0,1 mm 1 m/s 751 mmHg 81%
    11:00 +30°C° 0,1 mm 1 m/s 751 mmHg 75%
    12:00 +31°C° 0 mm 1 m/s 750 mmHg 67%
    13:00 +33°C° 0 mm 1 m/s 749 mmHg 58%
    14:00 +35°C° 0 mm 1 m/s 748 mmHg 50%
    15:00 +34°C° 0 mm 1 m/s 748 mmHg 53%
    16:00 +34°C° 0 mm 1 m/s 747 mmHg 55%
    17:00 +34°C° 0 mm 1 m/s 747 mmHg 58%
    18:00 +32°C° 0,3 mm 1 m/s 747 mmHg 66%
    19:00 +30°C° 0,3 mm 1 m/s 747 mmHg 74%
    20:00 +28°C° 0,3 mm 1 m/s 748 mmHg 82%
    21:00 +27°C° 0,3 mm 1 m/s 748 mmHg 85%
    22:00 +27°C° 0,3 mm 1 m/s 749 mmHg 88%
    23:00 +26°C° 0,3 mm 1 m/s 749 mmHg 91%

    26 Janeiro, Sexta-feira

    Tempo Temperatura Precipitação Vento Pressão Humidade
    00:00 +26°C° 0,1 mm 1 m/s 749 mmHg 92%
    01:00 +26°C° 0,1 mm 1 m/s 749 mmHg 92%
    02:00 +25°C° 0,1 mm 1 m/s 748 mmHg 93%
    03:00 +25°C° 0,1 mm 1 m/s 748 mmHg 93%
    04:00 +25°C° 0,1 mm 1 m/s 748 mmHg 94%
    05:00 +23°C° 0,1 mm 0 m/s 749 mmHg 94%
    06:00 +23°C° 0,2 mm 0 m/s 749 mmHg 94%
    07:00 +25°C° 0,2 mm 1 m/s 750 mmHg 94%
    08:00 +26°C° 0,2 mm 1 m/s 751 mmHg 94%
    09:00 +27°C° 0,4 mm 1 m/s 750 mmHg 88%
    10:00 +29°C° 0,4 mm 1 m/s 750 mmHg 83%
    11:00 +30°C° 0,4 mm 1 m/s 750 mmHg 77%
    12:00 +31°C° 0,9 mm 1 m/s 749 mmHg 76%
    13:00 +31°C° 0,9 mm 1 m/s 748 mmHg 75%
    14:00 +32°C° 0,9 mm 1 m/s 748 mmHg 73%
    15:00 +31°C° 0,6 mm 1 m/s 747 mmHg 75%
    16:00 +31°C° 0,6 mm 1 m/s 746 mmHg 76%
    17:00 +31°C° 0,6 mm 1 m/s 746 mmHg 77%
    18:00 +29°C° 0,3 mm 1 m/s 746 mmHg 83%
    19:00 +26°C° 0,3 mm 0 m/s 747 mmHg 89%
    20:00 +24°C° 0,3 mm 0 m/s 747 mmHg 95%
    21:00 +24°C° 0 mm 0 m/s 748 mmHg 95%
    22:00 +24°C° 0 mm 0 m/s 748 mmHg 95%
    23:00 +24°C° 0 mm 0 m/s 748 mmHg 96%

    27 Janeiro, Sábado

    Tempo Temperatura Precipitação Vento Pressão Humidade
    00:00 +23°C° 0 mm 0 m/s 748 mmHg 96%
    01:00 +23°C° 0 mm 0 m/s 748 mmHg 96%
    02:00 +23°C° 0 mm 0 m/s 747 mmHg 97%
    03:00 +23°C° 0,6 mm 0 m/s 747 mmHg 97%
    04:00 +23°C° 0,6 mm 0 m/s 747 mmHg 98%
    05:00 +22°C° 0,6 mm 0 m/s 748 mmHg 98%
    06:00 +23°C° 0,7 mm 0 m/s 748 mmHg 97%
    07:00 +24°C° 0,7 mm 0 m/s 749 mmHg 96%
    08:00 +24°C° 0,7 mm 0 m/s 750 mmHg 95%
    09:00 +28°C° 1,1 mm 1 m/s 749 mmHg 91%
    10:00 +29°C° 1,1 mm 1 m/s 749 mmHg 87%
    11:00 +30°C° 1,1 mm 1 m/s 749 mmHg 82%
    12:00 +31°C° 0,7 mm 1 m/s 748 mmHg 77%
    13:00 +32°C° 0,7 mm 1 m/s 748 mmHg 72%
    14:00 +34°C° 0,7 mm 1 m/s 747 mmHg 67%
    15:00 +32°C° 1,6 mm 1 m/s 746 mmHg 75%
    16:00 +31°C° 1,6 mm 1 m/s 746 mmHg 83%
    17:00 +30°C° 1,6 mm 1 m/s 745 mmHg 91%
    18:00 +29°C° 0,4 mm 1 m/s 746 mmHg 93%
    19:00 +27°C° 0,4 mm 1 m/s 746 mmHg 95%
    20:00 +24°C° 0,4 mm 0 m/s 747 mmHg 96%
    21:00 +24°C° 0,1 mm 0 m/s 747 mmHg 97%
    22:00 +24°C° 0,1 mm 0 m/s 748 mmHg 97%
    23:00 +24°C° 0,1 mm 0 m/s 748 mmHg 97%
    Mostrar mais